Temp
11 10 9 7 9 9 9 9 8 9 11 10 8 6 5 6 5 4 4 4 5 4 5 5 5 5 5 5 6 6 6 11 15 17 17 17 16 16 16 16 16 16 16 16
9 8 9 9 8 8 8 7 6 8 9 10 7 5 5 5 5 4 4 3 4 5 5 5 5 5 5 5 5 6 6 7 11 15 16 16 16 16 16 16 16 16 16 15
8 9 11 9 7 6 6 7 7 6 8 8 8 5 4 5 5 5 4 4 4 4 4 5 5 5 5 5 5 5 5 6 8 13 16 16 16 16 16 15 16 16 16 16
9 9 9 7 6 6 5 7 6 6 6 6 9 5 3 4 4 3 3 2 3 4 4 4 4 4 5 5 4 5 4 5 7 9 15 17 17 16 16 15 15 15 16 15
8 7 7 6 6 6 5 6 4 5 5 6 7 3 2 4 3 2 2 2 2 3 3 3 3 3 4 4 4 4 4 5 6 7 11 14 16 16 16 15 15 15 15 15
8 8 7 6 6 6 6 5 4 4 5 5 8 4 2 1 1 2 2 1 1 2 2 2 3 2 3 4 4 4 4 4 5 6 8 10 15 16 16 15 15 15 15 14
6 6 6 6 4 5 5 3 5 5 4 5 5 2 1 1 1 1 1 0 1 2 2 2 2 2 2 3 3 3 3 3 4 5 6 8 10 14 16 15 15 15 14 14
3 4 4 6 4 2 4 3 3 4 5 4 3 2 1 1 1 1 2 2 2 3 3 2 2 2 2 2 3 3 3 3 3 3 5 6 8 10 15 15 15 15 15 14
2 3 5 6 6 5 3 3 4 3 6 3 2 1 3 2 1 2 2 2 2 2 3 3 3 2 2 2 2 3 2 2 2 2 4 5 6 9 13 15 15 15 15 15
5 2 5 6 4 5 4 5 4 5 3 2 1 -0 -1 0 1 1 2 2 3 3 3 3 3 2 2 2 2 2 2 2 2 2 3 4 5 7 9 15 15 15 15 15
4 3 4 4 0 1 1 2 2 3 4 2 0 -1 1 0 1 0 2 2 2 2 3 3 2 2 2 2 2 2 2 2 2 2 3 4 4 5 7 10 15 16 15 15
4 3 2 3 3 4 2 1 3 1 1 2 0 -2 1 1 1 2 1 2 2 2 2 2 2 2 2 1 2 2 2 2 2 2 2 3 4 4 5 8 12 15 15 15
4 2 -0 3 3 2 -0 2 2 2 -3 -6 -1 -3 2 1 -0 0 0 1 1 2 2 2 2 2 2 2 2 2 2 1 2 2 2 2 3 3 4 5 8 11 15 15
5 2 -1 -1 -1 1 -3 1 1 -3 -2 -5 -3 -2 -2 -1 -3 -2 -1 -1 0 1 2 2 1 1 1 2 2 1 1 2 2 2 2 2 2 3 3 4 5 8 11 15
4 3 2 2 3 2 -4 1 0 -5 -8 -5 -4 -6 -4 -4 -4 -4 -2 -1 -1 0 1 1 1 2 1 1 1 2 2 2 1 2 2 1 2 2 3 3 4 5 8 12
2 3 3 2 2 1 2 -1 0 0 -7 -6 -6 -4 -4 -3 -2 -5 -3 -2 -2 -1 -0 1 1 2 1 1 1 1 1 1 1 1 2 1 1 2 2 2 3 3 5 8
3 2 3 3 1 1 -1 -0 -2 -1 -2 -6 -5 -5 -6 -3 -3 -5 -4 -3 -2 -2 -1 -0 1 1 1 1 1 1 2 2 1 1 1 1 1 1 2 2 2 2 3 5
3 3 3 2 2 -4 -1 1 -1 -4 1 -2 -4 -4 -5 -5 -4 -3 -3 -4 -3 -2 -1 -0 0 1 1 1 1 2 2 2 1 1 1 1 1 1 1 1 2 1 2 3
3 3 1 -3 -1 1 2 1 -0 -1 -2 1 -1 -1 -2 -1 -1 -1 0 -0 -2 -1 0 1 1 1 1 1 1 2 1 1 1 1 1 1 0 0 0 1 1 1 1 2
4 2 -1 -0 -1 -5 0 3 3 1 -3 1 1 -0 -2 -3 -2 -4 -1 -1 -0 1 1 1 1 1 1 1 1 1 1 1 1 2 1 1 0 0 -0 1 1 0 1 1
3 2 -0 -1 -6 -4 1 3 3 -0 -1 2 1 -0 -1 -5 -4 -2 -0 -0 1 1 1 1 0 0 0 0 0 0 1 1 2 2 2 2 1 0 -0 -0 0 0 0 1
1 -3 -4 -1 -7 -4 2 3 1 0 1 1 1 1 0 -2 -1 0 -0 -0 0 0 0 0 -0 -0 -0 -0 0 0 0 1 1 1 2 1 1 1 0 -1 -0 -0 -0 -0
0 -0 -2 -0 -2 2 2 2 3 1 1 1 1 1 -0 -0 0 -0 -1 -1 -0 0 -0 -0 -1 -1 -1 -1 -1 -1 -0 -0 0 1 1 1 1 1 1 -1 -1 -0 -1 -1
2 2 0 1 2 2 1 1 2 2 2 1 2 0 0 -0 -1 -1 -1 -1 -1 -1 -1 -1 -1 -2 -2 -2 -2 -1 -1 -1 -0 0 0 0 1 1 1 0 -1 -0 -1 -1
1 1 1 1 1 1 1 1 2 2 2 2 1 1 0 -0 -1 -1 -2 -1 -1 -1 -2 -2 -2 -2 -2 -3 -2 -2 -2 -2 -1 -1 -0 -0 -0 0 0 0 -0 0 -0 -1
-1 -0 -1 -1 1 0 0 3 3 2 2 1 0 -0 0 0 -1 -1 -2 -1 -2 -2 -2 -3 -3 -3 -3 -3 -3 -3 -3 -2 -2 -1 -1 -1 -1 -0 -0 0 1 0 0 0
Height
819 828 847 854 846 842 835 833 834 828 815 815 827 835 837 832 823 823 821 817 811 810 807 797 791 783 776 767 760 755 749 744 742 744 745 742 743 745 750 754 759 765 769 773
835 849 849 847 848 848 843 843 844 828 820 818 830 840 837 834 835 833 829 822 817 810 802 796 790 785 780 774 767 760 753 746 741 740 741 745 743 742 747 751 754 761 766 772
846 852 845 850 853 852 852 845 842 842 827 820 820 835 838 836 834 832 831 832 824 817 810 804 795 790 784 777 770 765 757 748 742 737 736 740 744 745 747 749 750 756 761 767
848 851 848 856 860 861 854 843 846 842 837 835 810 835 845 839 839 839 839 837 829 822 816 810 802 794 789 782 775 768 760 751 741 736 733 733 736 738 738 738 741 748 758 764
858 856 855 860 860 858 859 845 843 831 827 826 815 845 861 850 847 847 846 842 838 831 821 815 808 802 795 787 778 771 762 751 745 739 733 733 731 735 737 741 745 744 750 757
856 857 863 867 859 855 850 843 825 818 818 825 801 830 865 861 862 856 851 850 846 836 826 820 813 806 797 789 781 773 764 754 746 741 732 730 729 730 734 737 742 742 746 752
870 868 868 865 865 847 845 848 826 810 821 819 819 848 870 869 866 864 861 858 852 841 830 823 815 806 798 790 784 777 767 756 748 743 736 730 730 728 726 730 734 739 743 746
893 879 876 866 870 873 855 859 849 836 812 822 837 860 875 874 872 869 864 861 853 841 834 829 823 813 804 795 788 780 769 760 753 744 738 731 725 720 723 724 728 732 735 738
901 891 876 869 864 864 861 856 846 844 813 836 860 872 860 869 872 868 861 855 850 845 838 833 825 818 808 799 793 783 772 763 757 749 741 734 727 724 720 721 727 726 730 735
891 901 880 871 869 861 864 850 846 837 839 859 875 882 891 881 873 871 862 856 850 846 840 835 828 823 813 804 796 785 774 767 759 752 744 736 729 723 722 718 719 720 724 730
889 897 885 879 893 888 879 871 863 856 851 860 879 895 885 886 875 875 865 859 854 847 841 835 829 823 817 805 796 785 776 768 760 753 745 736 730 725 723 717 714 714 719 724
889 894 895 886 884 880 885 884 869 880 882 873 887 911 884 883 878 873 868 861 855 849 842 835 830 822 816 808 798 787 777 770 764 758 749 741 734 727 719 710 704 709 713 718
888 901 914 887 888 889 899 884 877 875 908 931 902 915 880 881 881 875 871 864 856 848 840 833 827 822 818 810 800 789 779 770 765 758 750 742 735 729 720 713 708 707 707 710
887 899 915 924 914 901 918 894 888 904 907 927 915 904 898 886 889 878 871 865 858 849 841 833 825 821 817 810 803 794 781 773 766 758 751 741 735 729 724 715 708 707 704 704
892 894 895 894 894 894 921 897 895 919 937 927 919 922 902 895 889 881 871 864 857 849 841 834 827 820 813 806 801 795 785 771 763 759 754 745 737 729 722 715 711 705 701 698
895 894 890 893 894 899 895 903 896 894 926 922 921 906 894 885 879 880 870 863 857 849 844 836 828 821 814 807 797 785 782 773 769 763 752 746 738 731 724 715 708 703 699 697
897 895 889 884 897 898 909 897 905 901 902 916 914 906 896 885 879 877 869 861 855 849 843 837 830 823 813 802 793 786 782 778 777 766 758 750 743 736 725 717 710 703 698 693
891 890 887 890 894 939 900 887 895 906 885 893 896 894 889 884 875 869 860 859 852 846 840 836 832 825 817 810 802 794 787 783 776 767 760 754 749 740 730 723 716 707 700 694
889 890 899 927 909 896 885 890 893 896 894 880 885 880 877 871 870 864 855 851 847 842 837 833 828 823 817 811 804 797 789 784 777 769 762 755 747 736 728 722 717 710 702 694
883 889 907 905 912 938 891 877 878 884 905 874 873 874 876 872 873 870 852 848 844 839 835 829 824 819 813 808 802 796 788 783 779 770 765 758 748 739 734 727 720 712 703 695
889 891 906 905 943 914 882 877 878 892 894 872 871 871 871 879 871 857 850 846 843 839 834 828 822 817 810 803 797 790 785 782 774 769 760 754 747 742 736 729 722 714 705 698
896 924 927 905 942 924 881 879 888 881 873 872 869 867 866 864 858 852 848 845 841 837 833 828 822 817 813 807 801 796 790 783 775 767 762 757 752 747 740 735 728 720 710 705
903 902 914 902 902 879 878 876 873 872 871 868 867 864 862 860 855 851 847 843 840 835 832 828 823 817 813 808 803 798 793 785 778 770 766 761 754 749 745 739 732 727 718 711
889 886 893 888 879 877 874 871 870 868 866 865 864 862 859 857 853 850 846 842 838 834 830 826 822 817 812 808 804 799 793 787 780 773 769 762 753 750 748 741 735 731 727 723
890 887 882 883 877 873 869 866 866 864 864 863 862 860 857 854 852 849 845 841 837 833 829 825 821 816 812 807 802 797 791 785 780 775 770 764 757 754 749 745 738 734 732 728
882 881 887 883 871 873 869 862 862 863 863 862 860 858 855 853 850 847 844 840 836 832 828 824 819 815 810 805 801 796 791 787 783 777 772 766 762 755 753 747 741 739 735 729
Wind_Speed
8 15 10 10 12 11 10 7 6 8 7 12 9 10 11 14 20 21 20 20 20 21 23 33 35 38 38 39 41 38 36 20 10 29 28 32 34 34 35 35 37 38 35 35
6 12 6 11 17 15 12 5 5 9 17 12 8 9 8 16 17 17 19 21 22 22 25 32 38 38 38 37 37 37 37 35 21 15 30 24 29 30 32 36 39 40 39 44
10 3 9 12 18 20 12 8 8 13 16 10 6 3 11 14 17 19 20 18 19 22 24 23 34 37 37 37 39 38 38 36 30 22 24 23 20 17 25 31 37 43 41 47
5 7 13 16 15 13 15 9 18 20 10 4 3 3 11 17 17 20 20 21 21 22 23 21 31 35 37 36 36 36 37 34 34 23 9 26 24 21 30 36 38 44 44 39
8 9 11 15 14 12 16 17 21 20 17 10 5 5 8 9 16 19 19 21 21 22 22 22 30 33 34 35 35 36 36 36 34 33 13 16 25 28 20 28 31 38 43 45
4 3 7 11 17 16 21 16 26 16 10 8 10 6 7 7 14 15 17 19 20 21 21 28 33 34 32 34 35 35 37 35 35 34 23 22 16 25 21 25 30 34 39 43
6 5 9 10 19 20 21 17 5 4 3 2 11 13 4 11 12 15 17 17 18 19 19 20 28 33 33 35 36 34 36 36 38 34 31 25 17 12 30 30 31 32 33 36
6 7 13 16 10 7 14 3 4 7 5 4 9 6 4 10 14 15 14 14 17 19 18 18 28 32 33 34 33 32 35 35 36 37 32 30 23 22 14 33 33 34 35 38
7 4 7 13 7 4 11 9 15 5 10 5 4 5 8 16 16 17 17 16 17 18 18 17 25 32 33 34 32 32 33 33 34 35 31 31 28 20 21 23 37 35 33 32
2 4 6 10 6 5 5 11 6 5 6 4 4 4 8 19 15 17 17 17 17 15 17 16 21 25 31 32 33 32 30 32 33 34 32 29 29 22 21 23 31 30 32 34
0 2 7 4 6 8 7 7 5 2 6 3 2 4 7 11 14 13 14 15 15 15 15 14 20 22 26 31 34 33 32 32 33 34 34 31 32 29 23 20 26 30 32 34
2 2 4 3 3 7 7 5 5 3 7 4 2 2 5 9 12 12 13 14 15 15 16 17 20 21 24 27 31 34 33 33 32 32 31 29 28 30 29 23 18 25 31 37
3 3 4 7 4 6 5 11 7 4 3 4 2 4 8 9 11 12 11 12 14 15 16 15 20 21 22 24 27 32 34 34 34 31 31 31 33 30 31 29 16 18 27 32
2 2 5 4 4 5 3 9 11 4 3 2 2 6 8 10 9 13 11 11 12 13 15 14 16 20 23 24 24 27 32 34 35 33 32 33 34 32 29 29 27 20 18 34
2 3 4 4 3 3 3 3 6 5 4 4 5 3 8 9 8 9 9 10 12 12 14 15 15 20 23 27 26 27 29 33 34 34 32 34 34 34 34 33 30 26 22 15
3 4 4 7 7 4 2 0 2 3 1 2 4 6 6 8 6 6 10 10 12 12 12 14 18 22 23 27 27 29 31 32 31 32 34 35 36 36 35 35 34 31 27 23
2 3 2 3 3 3 4 3 2 3 3 5 1 8 4 7 9 7 8 10 11 11 11 11 14 22 23 29 31 30 33 31 28 28 32 33 36 36 35 34 35 33 33 29
3 3 1 2 3 2 6 2 4 6 5 6 4 6 7 7 6 9 8 5 10 10 9 12 17 22 25 29 29 31 32 30 28 28 30 33 33 35 32 36 33 34 33 31
3 1 3 2 2 3 2 3 5 6 7 4 5 7 7 6 5 7 8 5 6 8 16 19 23 25 27 27 30 30 29 29 26 25 27 32 35 37 38 37 35 33 32 33
2 3 3 2 0 3 5 5 3 3 5 6 4 7 6 5 6 4 8 10 12 21 21 22 27 28 25 28 31 25 25 26 25 27 26 28 33 35 38 34 36 34 31 29
3 2 1 2 3 7 5 2 4 3 6 4 4 7 6 2 5 8 13 10 15 18 21 26 26 23 26 28 29 27 25 28 30 31 33 32 35 34 36 38 37 37 33 29
1 2 2 2 3 4 3 2 4 5 4 5 5 4 5 7 9 8 7 9 15 18 20 23 23 22 24 26 26 24 24 29 31 31 31 32 33 31 36 37 33 35 35 29
1 4 3 5 5 3 1 5 4 4 5 5 4 6 5 7 6 7 6 10 14 19 20 22 21 22 22 25 24 23 25 28 28 28 29 28 31 31 31 33 28 28 32 29
3 3 3 2 3 7 8 7 7 10 5 5 5 6 5 6 7 6 6 11 14 17 19 20 19 18 21 23 23 23 25 27 27 25 26 27 29 32 27 30 31 23 25 25
5 1 4 4 7 6 7 7 9 6 4 4 9 7 7 6 6 6 6 12 15 17 19 19 19 19 21 23 23 24 25 26 26 24 23 25 25 27 26 24 28 23 20 22
5 5 3 4 8 5 6 1 2 1 3 6 4 6 11 6 7 11 11 14 16 17 20 20 21 22 23 23 24 25 26 26 24 22 22 23 24 24 23 22 23 25 29 18
Wind_Direction
28 50 29 43 28 18 6 342 343 329 336 341 92 71 40 29 34 26 20 15 12 7 351 358 359 357 356 358 356 355 349 326 278 208 202 194 199 193 190 191 196 190 187 180
43 49 67 48 30 23 12 350 324 303 339 329 122 88 41 45 40 32 19 14 9 360 2 359 357 358 358 355 353 351 349 344 329 259 210 217 203 195 194 190 191 188 186 184
83 349 26 39 24 7 339 280 320 306 313 278 144 94 26 18 32 23 23 10 10 6 358 356 354 355 354 355 352 348 343 343 342 344 224 210 203 190 190 186 182 188 184 188
60 11 22 30 16 1 313 333 321 297 296 243 51 281 24 2 21 22 13 9 4 357 359 353 348 351 353 351 349 345 345 344 348 341 296 202 199 193 206 193 184 182 188 180
319 16 29 14 350 338 308 318 293 270 259 249 236 91 340 6 13 9 7 4 359 354 356 353 348 341 346 349 349 347 345 350 350 345 349 300 204 210 211 196 191 182 187 193
299 80 31 5 339 321 308 315 301 267 249 241 216 116 25 18 13 2 4 2 352 350 350 351 347 346 346 350 350 349 349 347 348 348 359 341 251 206 203 196 195 188 187 193
342 74 5 11 337 325 343 345 319 329 134 337 74 70 64 26 18 13 3 359 353 356 355 352 348 348 341 348 349 350 351 349 349 345 350 345 332 283 205 198 197 192 189 191
15 335 10 331 328 270 315 310 302 321 358 84 42 68 58 40 22 13 4 356 359 2 0 353 353 348 345 344 343 346 352 350 348 348 346 344 332 324 273 196 199 201 196 196
2 299 308 342 327 359 319 336 304 247 259 63 33 48 68 22 23 12 5 2 5 358 352 349 352 352 349 348 342 346 351 351 351 346 342 345 343 326 282 216 209 205 203 200
297 296 296 324 338 340 317 313 340 352 351 67 30 59 5 350 4 358 358 1 356 355 347 344 345 351 344 346 346 350 353 352 352 350 346 345 341 345 318 274 210 208 207 201
192 171 305 12 10 350 349 355 334 241 20 32 66 52 334 337 343 335 341 346 339 334 334 335 336 339 340 346 349 354 356 354 354 353 349 347 349 344 339 330 255 213 205 201
239 204 307 227 225 32 12 344 331 59 356 11 76 232 332 338 341 332 326 335 339 331 324 329 331 336 337 344 345 353 356 356 353 354 353 350 347 351 348 335 347 223 211 206
332 5 342 340 330 360 20 4 18 88 77 339 62 285 339 327 327 327 325 327 335 333 335 329 330 337 337 340 345 348 353 355 352 353 357 355 355 353 351 346 332 343 236 217
98 162 168 213 226 269 345 30 30 85 67 236 191 282 301 316 313 318 317 317 325 335 337 338 337 330 331 341 344 343 346 352 353 356 358 358 354 350 352 349 343 324 329 226
55 250 189 175 192 36 237 42 50 73 199 113 264 233 275 284 289 288 297 312 326 335 337 341 340 338 332 336 342 348 347 350 349 354 358 0 354 351 351 352 348 334 314 310
10 281 189 204 168 232 173 116 66 41 122 274 230 275 223 284 283 304 306 318 323 329 330 334 340 341 333 331 339 347 346 348 347 349 358 359 359 355 354 352 348 345 331 314
261 275 317 283 153 177 316 231 216 228 198 175 181 239 288 300 310 290 296 310 311 318 325 327 341 338 331 329 336 341 344 344 346 349 355 1 359 357 357 353 350 347 337 322
252 282 214 297 93 347 240 125 192 190 246 232 267 265 257 253 265 279 284 265 303 317 317 326 333 334 333 336 338 347 348 341 347 356 354 358 360 359 355 358 351 347 339 324
211 252 311 102 271 256 142 176 200 200 268 241 241 272 279 286 314 296 294 297 292 304 325 330 333 335 336 339 346 344 343 338 343 353 357 357 359 359 355 355 352 348 342 329
125 80 117 2 308 248 241 226 219 125 288 229 245 280 279 328 341 265 310 323 314 335 341 337 334 335 336 339 345 339 341 342 334 348 352 359 2 4 358 348 351 349 350 338
303 357 238 238 223 288 267 272 120 253 249 280 282 283 284 243 225 275 306 315 334 340 337 336 334 334 336 341 344 342 347 351 353 353 359 1 4 2 1 354 354 354 354 352
267 99 285 323 20 317 205 251 247 230 273 259 281 269 281 272 289 296 310 314 330 331 334 336 332 334 343 347 350 349 353 349 353 355 353 356 1 359 2 358 353 359 2 356
258 167 213 193 228 274 293 268 276 277 239 277 279 282 280 291 287 302 308 316 325 328 332 334 333 330 347 345 349 349 346 348 348 355 351 353 0 1 358 358 349 1 5 1
278 261 207 296 247 248 232 247 253 268 250 284 274 287 287 287 307 315 312 314 323 330 333 334 334 337 338 343 342 341 343 347 348 348 350 352 359 356 357 358 357 352 7 2
214 326 220 244 278 296 273 240 242 241 310 320 319 300 293 307 321 304 306 316 326 333 334 334 335 334 334 338 339 342 344 347 348 349 349 350 354 353 349 350 0 351 347 8
186 200 175 236 258 233 264 323 66 348 294 305 300 306 333 331 310 320 319 333 335 332 335 335 334 335 334 339 341 345 345 345 344 345 345 348 345 353 346 347 352 1 5 3